Weather in Čakovec

Croatia     46°23′13″N   16°26′29″E
temp.,
°C
wind,
m/s
gust,
m/s
humid.,
%
clouds,
%
prec.,
mm/h
press.,
hPa
HPBL,
m
1 july, fri
fri123:00+22s22750 0.0 101220
02:00+21s22760 0.0 101224
05:00+20s22834 0.0 101125
08:00+25ssw356850 0.0 1012297
11:00+31ssw57404 0.0 10121413
14:00+34sw46290 0.0 10112097
17:00+34ssw35283 0.0 10102176
20:00+28se11533 0.0 101111
2 july, sat
sat223:00+17nne5147232 0.3 1018478
02:00+16nne515664 0.3 1020635
05:00+15nnw37750 0.0 1021259
08:00+18nnw24670 0.0 1023520
11:00+24n34370 0.0 10231130
14:00+28n23280 0.0 10211500
17:00+29ne23300 0.0 10201661
20:00+23ene22530 0.0 101911
3 july, sun
sun323:00+19n11520 0.0 102111
02:00+17n22580 0.0 102112
05:00+15n22711 0.0 102015
08:00+21n225770 0.0 1020247
11:00+27ne114092 0.0 1020965
14:00+31nnw1134100 0.0 10191367
17:00+31nnw11323 0.0 10171549
20:00+25w11560 0.0 101711
4 july, mon
mon423:00+21wnw11620 0.0 101811
02:00+19nw22685 0.0 101716
05:00+17wnw11784 0.0 101711
08:00+23nnw12584 0.0 1018183
11:00+31n11385 0.0 1018843
14:00+35se122728 0.0 10161937
17:00+34sse12250 0.0 10142373
20:00+28nw334779 0.0 101549
5 july, tue
tue523:00+18n378557 0.0 1018194
02:00+19nw388035 0.0 1018286
05:00+17w228889 0.0 101924
08:00+22nw2365100 0.0 1019274
11:00+26n355063 0.0 1020995
14:00+33nne55292 0.0 10172581
17:00+33ne55270 0.0 10162835
20:00+26nne37475 0.0 1017139